Find Starlink 38266

NORAD ID: 100255 Int'l Des: 2026-181 Owner: SPXS Country: US Constellation: starlink operational

現在のビュー

3D地球を読み込み中...

About Starlink 38266

Starlink 38266 (NORAD 100255) is a starlink constellation satellite launched Aug 8, 2026 by SPXS of US. with a mass of 575.00 kg.

次回通過

Passes for default location (London). Set your location on the main map for personalized predictions.

高度履歴

Loading altitude history...

軌道要素

1 A0255U 26181K 26262.59694155 .00265705 00000-0 17168-2 0 9992
2 A0255 97.2844 306.0765 0001261 30.1239 330.0099 15.75332127 7819
Epoch: Sep 19, 2026 • Age: 25 hours

現在のステータス

高度 351.0 km
遠地点 / 近地点 N/A
速度 7.70 km/s
衛星直下点 52.51°N, 91.6°W
打ち上げ日 Aug 8, 2026
運用期間 0.1 years
タイプ internet

技術仕様

分類 Payload
質量 575.00 kg
乾燥質量 530.00 kg
長さ 0.30 m
スパン 29.00 m
形状 ? Box + pan
製造者 SPXS
バスタイプ Starlink V2MO
フェーズステータス In Orbit
所有者/国 SPXS/US

Most Searched